Regional Weather Roundup
Issued by NWS

Home | Current Version | Previous Version | Text Only | Print | Product List | Glossary Off
Versions: 1 2 3 4 5 6 7 8 9 10 11 12 13 14 15 16 17 18 19 20 21 22 23 24 25 26 27 28 29 30 31 32 33 34 35 36 37 38 39 40 41 42 43 44 45 46 47 48

626
ASUS45 KBOU 071107
RWRCO

WEATHER ROUNDUP FOR COLORADO
NATIONAL WEATHER SERVICE DENVER/BOULDER CO
400 AM MST SUN FEB 07 2016

NOTE: "FAIR" INDICATES FEW OR NO CLOUDS BELOW 12000 FEET WITH NO
SIGNIFICANT WEATHER AND/OR OBSTRUCTIONS TO VISIBILITY.

COZ001>005-013-030-031-071200-
...NORTHWEST COLORADO...

CITY           SKY/WX    TMP DP  RH WIND       PRES   REMARKS
CRAIG          CLOUDY     4   0  83 CALM      30.39S
HAYDEN         CLOUDY    12   7  79 CALM      30.35F
MEEKER         CLOUDY    12   8  84 CALM      30.39R
MOUNT WERNER   NOT AVBL
STEAMBOAT SPGS CLOUDY    12   8  84 S5        30.35F WCI   4
WALDEN         CLEAR     25  12  58 W21       30.25F WCI  10
$$

COZ006>008-011-071200-
...WEST CENTRAL VALLEYS...

CITY           SKY/WX    TMP DP  RH WIND       PRES   REMARKS
GRAND JUNCTION CLOUDY    15  13  91 CALM      30.50R
MONTROSE       CLOUDY    14   8  77 S3        30.46F
EAGLE          CLOUDY     5   3  92 CALM      30.44R
RIFLE          CLOUDY    13   8  81 SE3       30.47R
DELTA          CLOUDY    20  16  83 CALM      30.49R
NUCLA          NOT AVBL
$$

COZ017>023-064>068-071200-
...SOUTHWEST COLORADO...

CITY           SKY/WX    TMP DP  RH WIND       PRES   REMARKS
DURANGO        CLOUDY     6   2  83 CALM      30.35F
CORTEZ         CLOUDY    12   8  84 E10       30.40F WCI  -1
PAGOSA SPRINGS CLOUDY   N/A N/A N/A CALM      30.35F
TELLURIDE      CLOUDY    20  13  73 SE6       30.42S WCI  12
WOLF CREEK PAS CLOUDY    21   5  49 S5        30.37F WCI  15
$$

COZ009-010-012-014-032>034-037-058>063-071200-
...CENTRAL COLORADO...

CITY           SKY/WX    TMP DP  RH WIND       PRES   REMARKS
ASPEN          CLOUDY    11   6  81 S8        30.36R WCI  -1
BUENA VISTA    CLOUDY    34   9  35 NW14G38   30.23R WCI  24
COPPER MTN     CLOUDY    16   9  73 NW10G17   30.29R WCI   3
BERTHOUD PASS  LGT SNOW   9   0  66 MISG      30.14S
COTTONWOOD PAS CLOUDY    32   7  34 W17G39    30.19S WCI  21
GUNNISON       CLOUDY   -13 -29  44 SE3       30.47R
KREMMLING      CLOUDY    -6  -9  84 CALM      30.35F
LEADVILLE      CLOUDY    19   4  51 N12G22    30.30R WCI   7
MONARCH PASS   CLOUDY    12   9  85 MISG      30.36F
SALIDA         NOT AVBL
SUNLIGHT       PTCLDY    18  14  86 CALM        N/A
WILKERSON PASS CLOUDY    21   0  39 NW12G23   30.24R WCI   9
$$

COZ069>075-071200-
...SAN LUIS VALLEY/SANGRE DE CRISTO MOUNTAINS...

CITY           SKY/WX    TMP DP  RH WIND       PRES   REMARKS
ALAMOSA        CLOUDY    -2  -7  79 CALM      30.31F
LA VETA PASS   CLOUDY    21   9  58 MISG      30.21F
SAGUACHE       CLOUDY    14   5  67 SE7       30.31S WCI   4
$$

COZ035-036-038>040-071200-
...NORTHERN COLORADO FRONT RANGE...

CITY           SKY/WX    TMP DP  RH WIND       PRES   REMARKS
DENVER INTL AP CLOUDY    38  14  37 W16G25    30.16R
DMNS CITY PARK   N/A     44   8  23 NW15G25   30.17R
AURORA         PTCLDY    40  12  31 NW23      30.16R
FRONT RANGE AP   N/A     34  14  44 W15       30.16R WCI  24
ERIE MUNI ARPT CLOUDY    41   9  27 W12       30.15R
BOULDER MUN AP CLOUDY    41  10  28 N9        30.15R
CENTENNIAL     CLOUDY    39   8  27 N7        30.15R
BROOMFIELD     CLOUDY    41  14  33 W24G32    30.16R
FORT COLLINS   CLOUDY    39  14  35 NW22G31   30.15R
LONGMONT       CLOUDY    44   7  22 W9        30.15R
$$

COZ041-046-047-076>085-087-088-071200-
...PIKES PEAK/PALMER DIVIDE AND SOUTHERN FOOTHILLS...

CITY           SKY/WX    TMP DP  RH WIND       PRES   REMARKS
COLO. SPRINGS  CLOUDY    33   8  35 N20       30.15R WCI  21
A. F. ACADEMY  CLOUDY    38   1  21 N15G22    30.14R
SCHRIEVER AFB  FAIR      37   6  27 NW12      30.14R
ELLICOTT       NOT AVBL
FALCON         CLOUDY    31   5  34 NW10      30.16R WCI  22
FORT CARSON    PTCLDY    45   4  18 SW6       30.12R
LIMON          CLOUDY    19  14  81 NW6       30.17R WCI  11
MONUMENT HILL  CLOUDY    28   0  29 N3        30.17R
TRINIDAD       CLOUDY    31  16  54 W9        30.15S WCI  23
$$

COZ042>045-048>051-090-091-071200-
...NORTHEAST COLORADO...

CITY           SKY/WX    TMP DP  RH WIND       PRES   REMARKS
GREELEY ARPT   CLOUDY    30  16  55 NW13      30.15R WCI  20
AKRON          CLOUDY    24  17  74 N14       30.14R WCI  12
BURLINGTON     CLOUDY    30  21  69 MISG      30.14S
WRAY           CLEAR     32  19  59 NW16      30.14R WCI  21
STERLING       CLOUDY    21  16  79 NW7       30.17R WCI  13
HOLYOKE        CLEAR     34  21  60 NW16      30.15R WCI  23
FORT MORGAN    CLOUDY    29  19  66 N18       30.16R WCI  16
$$

COZ086-089-092>099-071200-
...SOUTHEAST COLORADO...

CITY           SKY/WX    TMP DP  RH WIND       PRES   REMARKS
PUEBLO         CLOUDY    44  15  31 NW8       30.12R
LA JUNTA       CLOUDY    28  23  81 CALM      30.16R
LAMAR          CLOUDY    26  23  88 SW5       30.16R WCI  20
SPRINGFIELD      N/A     34  23  64 NE10      30.14R WCI  26
$$




USA.gov is the U.S. government's official web portal to all federal, state and local government web resources and services.